Find Starlink 4643

NORAD ID: 54824 Int'l Des: 2022-177 Owner: SPXS Country: US Constellation: starlink operational
LEOCIRCULAR

当前视图

正在加载3D地球...

About Starlink 4643

Starlink 4643 (NORAD 54824) is a starlink constellation satellite (v1.5) launched Dec 28, 2022 by SPXS of US. It operates in LEO, CIRCULAR orbit with a mass of 305.00 kg.

关于 Starlink 4643

正在加载描述...

即将过境

Passes for default location (London). Set your location on the main map for personalized predictions.

高度历史

Loading altitude history...

两行轨道根数

1 54824U 22177E 26173.56217443 .00000040 00000-0 10989-4 0 9998
2 54824 43.0023 263.6813 0001203 287.8614 72.2107 15.27579373192963
Epoch: Jun 22, 2026 • Age: 29 hours

当前状态

高度 486.6 km
速度 7.63 km/s
星下点 42.19°N, 148.89°E
发射日期 Dec 28, 2022
运行时间 3.4 years
类型 internet

技术详情

分类 Payload
质量 305.00 kg
干质量 290.00 kg
总质量 305.00 kg
长度 0.20 m
直径 2.80 m
跨度 9.00 m
形状 Box + pan
制造商 SPXS
平台类型 Starlink
阶段状态 In Orbit
所有者/国家 SPXS/US

Most Searched